Location: Marcé
(47.5801°N, 0.3280°W)
Time: 04:23:12
(UTC+01:00)

Vanguard 1 Rocket - Pass Details

Date: 30 November 2021
Orbit: 651 x 4225 km, 34.3° (Epoch: 26 January)

Event Time Altitude Azimuth Distance (km) Brightness Sun altitude
Exits shadow 02:27:34 20° 123° (ESE) 4,360 10.8 -57.5°
Drops below altitude 10° 02:37:21 10° 92° (E) 6,189 11.9 -56.3°
Sets 02:45:04 0° 80° (E) 7,814 12.6 -55.3°
